Flag for Germany Weather past 2 weeks in Varel, Lower Saxony, Germany

Now
36 °F

Passing clouds.


Feels Like: 30 °F
Forecast: 35 / 40 °F
Wind: 7 mph from West

Location: Wittmundhaven

Current Time: Jan 25, 2015 at 5:10:58 AM

Latest Report: Jan 25, 2015 at 4:20 AM


Visibility: N/A

Pressure: 30.24 "Hg

Humidity: 93%

Dew point: 34 °F

Location of VarelLocation

Historic Weather in Varel — Graph

°F

Varel temperature yesterday

Maximum temperature yesterday: 39 °F (at 2:20 PM)
Minimum temperature yesterday: 28 °F (at 12:20 AM)
Average temperature yesterday: 33 °F

Past Weeks' High & Low Weather Summary

 TemperatureHumidityPressure
High54 °F (Jan 10, 3:20 AM)100% (Jan 13, 3:20 AM)30.33 "Hg (Jan 13, 3:20 AM)
Low19 °F (Jan 23, 5:20 AM)61% (Jan 10, 4:20 PM)29.27 "Hg (Jan 15, 2:20 PM)
Average37 °F88%29.82 "Hg
* Reported Jan 10 3:20 AM — Jan 25 3:20 AM, Varel, Weather by CustomWeather, © 2014

Note: Actual official high and low records may vary slightly from our data, if they occured in-between our weather recording intervals... More about our weather records

Advertising

Varel weather history for previous 24 hours

 ConditionsComfort  
Time TempWeatherWind HumidityBarometerVisibility
3:20 AM
Jan 25
36 °FPassing clouds.8 mph93%30.24 "HgN/A
2:20 AM36 °FPassing clouds.8 mph93%30.24 "HgN/A
1:20 AM34 °FLight freezing rain. Passing clouds.7 mph93%30.21 "Hg6 mi
12:20 AM34 °FPassing clouds.6 mph87%30.21 "HgN/A
11:20 PM
Jan 24
36 °FPassing clouds.8 mph87%30.21 "HgN/A
10:20 PM34 °FPassing clouds.1 mph93%30.21 "HgN/A
9:20 PM34 °FPassing clouds.6 mph87%30.18 "HgN/A
8:20 PM36 °FPassing clouds.2 mph93%30.18 "HgN/A
8:00 PM37 °FSprinkles. Passing clouds.5 mph81%30.18 "Hg5 mi
7:20 PM36 °FSnow flurries. Passing clouds.8 mph87%30.15 "Hg6 mi
6:20 PM37 °FPassing clouds.8 mph81%30.12 "HgN/A
5:20 PM37 °FPassing clouds.7 mph87%30.09 "HgN/A
4:20 PM39 °FPassing clouds.6 mph81%30.07 "HgN/A
3:20 PM39 °FScattered clouds.6 mph81%30.04 "HgN/A
2:20 PM39 °FScattered clouds.7 mph87%30.01 "HgN/A
1:20 PM37 °FScattered clouds.9 mph87%30.01 "Hg5 mi
1:02 PM36 °FFog.8 mph93%30.01 "Hg3 mi
12:20 PM34 °FFog.6 mph93%29.98 "Hg2 mi
11:53 AM34 °FFog.8 mph93%29.98 "Hg2 mi
11:20 AM32 °FIce fog.9 mph100%29.98 "Hg2 mi
10:20 AM30 °FLight snow. Ice fog.10 mph100%29.98 "Hg2 mi
9:20 AM30 °FSnow. Partly sunny.13 mph100%29.95 "Hg1 mi
8:20 AM30 °FHeavy snow. Low clouds.12 mph93%29.98 "Hg1 mi
7:58 AM28 °FHeavy snow. Passing clouds.12 mph100%29.98 "Hg1 mi
7:20 AM28 °FLight snow. Ice fog.14 mph100%29.95 "Hg1 mi
6:20 AM28 °FLight snow. Ice fog.14 mph93%29.98 "Hg1 mi
5:20 AM28 °FLight snow. Ice fog.15 mph86%30.01 "Hg1 mi
Weather by CustomWeather, © 2014

See weather overviewHow to use our weather pages